Location: Irma
(52.9170°N, 111.2330°W)
Time: 01:05:12
(UTC-06:00)

Cosmos 1633 Rocket - Visible Passes

Search period start: 21 October 2014 00:00
Search period end: 31 October 2014 00:00
Orbit: 609 x 625 km, 82.5° (Epoch: 19 October)

Date Brightness Start Highest point End Pass type
(mag) Time Alt. Az. Time Alt. Az. Time Alt. Az.
21 Oct 5.1 05:03:39 10° SE 05:07:19 27° E 05:11:01 10° NNE visible
21 Oct 3.5 06:40:55 10° SW 06:45:00 39° WNW 06:49:08 10° N visible
22 Oct 4.1 05:20:13 12° SSE 05:23:58 45° E 05:28:08 10° NNE visible
22 Oct 4.1 06:58:24 10° WSW 07:02:01 25° WNW 07:05:40 10° N visible
23 Oct 6.2 04:03:01 10° E 04:03:42 10° ENE 04:04:24 10° ENE visible
23 Oct 3.1 05:38:26 28° S 05:40:42 76° E 05:45:05 10° NNE visible
23 Oct 4.6 07:16:19 10° W 07:19:07 16° WNW 07:21:55 10° NNW visible
24 Oct 5.6 04:19:08 16° E 04:20:11 17° E 04:23:01 10° NE visible
24 Oct 2.9 05:56:19 44° SW 05:57:31 65° WNW 06:01:54 10° N visible
25 Oct 5.0 04:36:47 27° E 04:36:47 27° E 04:40:27 10° NNE visible
25 Oct 3.5 06:13:58 38° W 06:14:26 39° WNW 06:18:34 10° N visible
26 Oct 4.3 04:54:17 39° ENE 04:54:17 39° ENE 04:57:34 10° NNE visible
26 Oct 4.1 06:31:27 25° WNW 06:31:27 25° WNW 06:35:05 10° N visible
27 Oct 4.1 05:11:39 39° NNE 05:11:39 39° NNE 05:14:31 10° NNE visible
27 Oct 4.7 06:48:49 16° NW 06:48:49 16° NW 06:51:21 10° NNW visible
28 Oct 6.1 03:51:47 12° NE 03:51:47 12° NE 03:52:26 10° NE visible
28 Oct 4.3 05:28:56 31° N 05:28:56 31° N 05:31:19 10° N visible
28 Oct 5.1 07:06:05 11° NW 07:06:05 11° NW 07:06:47 10° NW visible
29 Oct 5.9 04:09:00 15° NE 04:09:00 15° NE 04:09:52 10° NNE visible
29 Oct 4.7 05:46:08 22° NNW 05:46:08 22° NNW 05:47:59 10° N visible
30 Oct 5.7 04:26:08 15° NNE 04:26:08 15° NNE 04:26:58 10° NNE visible
30 Oct 5.0 06:03:16 16° NNW 06:03:16 16° NNW 06:04:30 10° N visible
